New Bern, NC

2:45 PM EDT on July 23, 2017 (GMT -0400)
Craven County Regional

Weather History for KEWN - August, 2013

Change the Weather History Date:

Sunday, August 25, 2013

  Actual Average Record
Temperature  
Mean Temperature 74 °F 78 °F  
Max Temperature 82 °F 87 °F 96 °F (1968)
Min Temperature 66 °F 70 °F 57 °F (1969)
Degree Days  
Heating Degree Days 0 0  
Month to date heating degree days 0 0  
Since 1 June heating degree days 0 1  
Since 1 July heating degree days 0 0  
Cooling Degree Days 9 13  
Month to date cooling degree days 354 361  
Year to date cooling degree days 1536 1451  
Since 1 June cooling degree days 1280 1208  
Growing Degree Days 24 (Base 50)    
Moisture  
Dew Point 62 °F    
Average Humidity 69    
Maximum Humidity 87    
Minimum Humidity 51    
Precipitation  
Precipitation 0.00 in 0.21 in 1.90 in (1990)
Month to date precipitation 5.85 5.46  
Year to date precipitation 29.14 35.61  
Snow  
Snow 0.00 in - - ()
Month to date snowfall 0.0  
Since 1 July snowfall 0.0  
Snow Depth 0.00 in    
Sea Level Pressure  
Sea Level Pressure 30.31 in    
Wind  
Wind Speed 9 mph (NNE)    
Max Wind Speed 18 mph    
Max Gust Speed 23 mph    
Visibility 10 miles    
Events      
T = Trace of Precipitation, MM = Missing Value Source: NWS Daily Summary

Daily Weather History Graph

Daily Weather History Graph

Search for Another Location

Airport or City:

Trip Planner

Search our weather history database for the weather conditions in past years. The results will help you decide how hot, cold, wet, or windy it might be!

Date:

Astronomy

Aug. 25, 2013 Rise Set
Actual Time 6:35 AM EDT 7:43 PM EDT
Civil Twilight 6:09 AM EDT 8:10 PM EDT
Nautical Twilight 5:38 AM EDT 8:41 PM EDT
Astronomical Twilight 5:05 AM EDT 9:13 PM EDT
Moon 10:28 PM EDT (8/25) 11:21 AM EDT (8/25)
Length of Visible Light 14h 00m
Length of Day
13h 08m
Waning Gibbous, 76% of the Moon is Illuminated
Aug 25
Waning Gibbous
Aug 28
Last Quarter
Sep 5
New
Sep 12
First Quarter
Sep 19
Full

Hourly Weather History & Observations

Time (EDT) Temp. Heat Index Dew Point Humidity Pressure Visibility Wind Dir Wind Speed Gust Speed Precip Events Conditions
12:54 AM 69.1 °F - 63.0 °F 81% 30.28 in 10.0 mi NNE 6.9 mph - N/A   Clear
1:54 AM 66.9 °F - 62.1 °F 84% 30.28 in 10.0 mi NE 5.8 mph - N/A   Clear
2:54 AM 66.9 °F - 62.1 °F 84% 30.28 in 10.0 mi NNE 5.8 mph - N/A   Clear
3:54 AM 66.9 °F - 62.1 °F 84% 30.27 in 10.0 mi NNE 4.6 mph - N/A   Clear
4:54 AM 66.9 °F - 62.1 °F 84% 30.27 in 10.0 mi NNE 5.8 mph - N/A   Clear
5:54 AM 66.0 °F - 62.1 °F 87% 30.28 in 10.0 mi NNE 5.8 mph - N/A   Clear
6:54 AM 66.0 °F - 62.1 °F 87% 30.30 in 10.0 mi NNE 6.9 mph - N/A   Clear
7:54 AM 68.0 °F - 63.0 °F 84% 30.32 in 10.0 mi NNE 9.2 mph - N/A   Clear
8:54 AM 72.0 °F - 63.0 °F 73% 30.35 in 10.0 mi NNE 10.4 mph - N/A   Clear
9:54 AM 75.0 °F - 62.1 °F 64% 30.36 in 10.0 mi NNE 17.3 mph 21.9 mph N/A   Clear
10:54 AM 77.0 °F - 61.0 °F 58% 30.36 in 10.0 mi NE 16.1 mph 19.6 mph N/A   Clear
11:54 AM 79.0 °F - 61.0 °F 54% 30.35 in 10.0 mi NE 11.5 mph - N/A   Clear
12:54 PM 80.1 °F 81.2 °F 62.1 °F 54% 30.34 in 10.0 mi NNE 10.4 mph - N/A   Clear
1:54 PM 81.0 °F 82.2 °F 63.0 °F 54% 30.32 in 10.0 mi NNE 11.5 mph - N/A   Scattered Clouds
2:54 PM 82.0 °F 83.1 °F 63.0 °F 52% 30.31 in 10.0 mi North 15.0 mph 19.6 mph N/A   Scattered Clouds
3:54 PM 82.0 °F 83.1 °F 63.0 °F 52% 30.30 in 10.0 mi NNE 13.8 mph 20.7 mph N/A   Scattered Clouds
4:54 PM 80.1 °F 81.2 °F 62.1 °F 54% 30.28 in 10.0 mi NE 11.5 mph - N/A   Mostly Cloudy
5:54 PM 79.0 °F - 63.0 °F 58% 30.30 in 10.0 mi North 11.5 mph - N/A   Clear
6:54 PM 75.9 °F - 63.0 °F 64% 30.30 in 10.0 mi NE 10.4 mph - N/A   Clear
7:54 PM 73.0 °F - 63.0 °F 71% 30.30 in 10.0 mi ENE 6.9 mph - N/A   Clear
8:54 PM 71.1 °F - 63.0 °F 75% 30.30 in 10.0 mi ENE 6.9 mph - N/A   Clear
9:54 PM 69.1 °F - 62.1 °F 78% 30.31 in 10.0 mi NE 6.9 mph - N/A   Clear
10:54 PM 68.0 °F - 61.0 °F 78% 30.31 in 10.0 mi NE 6.9 mph - N/A   Clear
11:54 PM 66.9 °F - 61.0 °F 81% 30.31 in 10.0 mi NE 5.8 mph - N/A   Clear